Date String (YYYY-MM-DD hh:mm:ss) UTC,Instrument flags,absolute air pressure of the measurement (hPa),sample flow rate (lpm),inlet stack bypass flow (lpm),air temperature of the measurement (°C),ambient temperature measured by the external sensor (°C),aerosol sample conditioner tube jacket temperature (°C),OPC LED temperature (°C),internal box temperature (°C),relative humidity of the measurement (%),span deviation,mass concentration of particles derived from Lorenz-Mie calculation of OPC scattering (μg/m³),mass concentration of particles derived from Lorenz-Mie calculation of OPC scattering (μg/m³),mass concentration of particles derived from Lorenz-Mie calculation of OPC scattering (μg/m³)
DateTimeUTC,F1_M11,P_M11,Q1_M11,Q2_M11,T1_M11,T2_M11,T3_M11,T4_M11,T5_M11,U1_M11,ZSPAN_M11,X0_M11,X2_M11,X1_M11
2023-12-31 08:00:00,SystemResetWarning,0829.7,5.00,000.00,022.9,022.0,000.0,031.2,024.3,10.1,0000.0,0007.65,0003.86,0003.46
2023-12-31 08:01:00,SystemResetWarning,0829.7,5.00,000.00,022.9,022.1,000.0,031.2,024.3,10.1,0000.0,0007.72,0003.86,0003.45
2023-12-31 08:02:00,SystemResetWarning,0829.7,5.00,000.00,022.9,022.1,000.0,031.2,024.3,10.1,0000.0,0007.67,0003.88,0003.45
2023-12-31 08:03:00,SystemResetWarning,0829.7,5.01,000.00,022.9,022.0,000.0,031.2,024.3,10.1,0000.0,0007.55,0003.89,0003.45
2023-12-31 08:04:00,SystemResetWarning,0829.7,5.00,000.00,022.9,022.0,000.0,031.2,024.3,10.1,0000.0,0007.52,0003.88,0003.43
2023-12-31 08:05:00,SystemResetWarning,0829.7,5.00,000.00,022.9,022.0,000.0,031.2,024.3,10.1,0000.0,0007.84,0003.85,0003.39
2023-12-31 08:06:00,SystemResetWarning,0829.7,5.00,000.00,022.9,022.0,000.0,031.2,024.3,10.1,0000.0,0008.25,0003.86,0003.38
2023-12-31 08:07:00,SystemResetWarning,0829.7,5.00,000.00,022.9,022.0,000.0,031.2,024.3,10.1,0000.0,0007.88,0003.82,0003.37
2023-12-31 08:08:00,SystemResetWarning,0829.7,5.00,000.00,022.9,022.0,000.0,031.2,024.3,10.1,0000.0,0007.87,0003.80,0003.35
2023-12-31 08:09:00,SystemResetWarning,0829.7,5.00,000.00,022.9,022.0,000.0,031.2,024.3,10.1,0000.0,0008.19,0003.83,0003.34
2023-12-31 08:10:00,SystemResetWarning,0829.7,5.00,000.00,022.9,022.0,000.0,031.2,024.3,10.1,0000.0,0008.22,0003.81,0003.33
2023-12-31 08:11:00,SystemResetWarning,0829.7,5.00,000.00,022.9,022.0,000.0,031.2,024.3,10.1,0000.0,0008.44,0003.85,0003.34
2023-12-31 08:12:00,SystemResetWarning,0829.7,5.00,000.00,022.9,022.0,000.0,031.2,024.3,10.1,0000.0,0008.61,0003.89,0003.37
2023-12-31 08:13:00,SystemResetWarning,0829.7,5.00,000.00,022.9,022.0,000.0,031.2,024.3,10.1,0000.0,0008.61,0003.94,0003.40
2023-12-31 08:14:00,SystemResetWarning,0829.7,5.00,000.00,022.9,022.0,000.0,031.2,024.3,10.1,0000.0,0008.64,0003.97,0003.42
2023-12-31 08:15:00,SystemResetWarning,0829.7,4.99,000.00,022.9,022.0,000.0,031.2,024.3,10.1,0000.0,0009.80,0004.03,0003.47
2023-12-31 08:16:00,SystemResetWarning,0829.7,5.00,000.00,022.9,022.0,000.0,031.2,024.3,10.1,0000.0,0009.58,0004.08,0003.52
2023-12-31 08:17:00,SystemResetWarning,0829.7,5.00,000.00,022.9,022.0,000.0,031.2,024.3,10.2,0000.0,0009.13,0004.09,0003.57
2023-12-31 08:18:00,SystemResetWarning,0829.7,5.00,000.00,022.9,022.0,000.0,031.2,024.3,10.2,0000.0,0009.31,0004.12,0003.59
2023-12-31 08:19:00,SystemResetWarning,0829.7,5.00,000.00,022.9,022.0,000.0,031.2,024.3,10.2,0000.0,0009.34,0004.13,0003.62
2023-12-31 08:20:00,SystemResetWarning,0829.7,5.01,000.00,022.9,022.0,000.0,031.2,024.3,10.3,0000.0,0009.07,0004.11,0003.63
2023-12-31 08:21:00,SystemResetWarning,0829.7,5.00,000.00,022.9,022.0,000.0,031.2,024.3,10.3,0000.0,0009.60,0004.12,0003.64
2023-12-31 08:22:00,SystemResetWarning,0829.7,5.00,000.00,022.9,022.0,000.0,031.2,024.3,10.3,0000.0,0009.50,0004.12,0003.64
2023-12-31 08:23:00,SystemResetWarning,0829.7,5.00,000.00,022.9,022.0,000.0,031.2,024.3,10.3,0000.0,0009.78,0004.10,0003.63
2023-12-31 08:24:00,SystemResetWarning,0829.7,5.00,000.00,022.9,022.0,000.0,031.2,024.3,10.3,0000.0,0010.09,0004.11,0003.63
2023-12-31 08:25:00,SystemResetWarning,0829.6,5.00,000.00,022.9,022.0,000.0,031.2,024.3,10.3,0000.0,0010.50,0004.10,0003.62
2023-12-31 08:26:00,SystemResetWarning,0829.7,5.00,000.00,022.9,022.0,000.0,031.2,024.3,10.2,0000.0,0009.83,0004.08,0003.61
2023-12-31 08:27:00,SystemResetWarning,0829.7,5.00,000.00,022.9,022.0,000.0,031.2,024.3,10.2,0000.0,0009.42,0004.08,0003.60
2023-12-31 08:28:00,SystemResetWarning,0829.6,5.01,000.00,022.9,022.0,000.0,031.2,024.3,10.2,0000.0,0009.74,0004.09,0003.59
2023-12-31 08:29:00,SystemResetWarning,0829.6,5.01,000.00,022.9,022.0,000.0,031.2,024.3,10.3,0000.0,0010.38,0004.08,0003.58
2023-12-31 08:30:00,SystemResetWarning,0829.6,5.00,000.00,022.9,022.0,000.0,031.2,024.3,10.2,0000.0,0010.81,0004.14,0003.56
2023-12-31 08:31:00,SystemResetWarning,0829.6,5.00,000.00,022.9,022.0,000.0,031.2,024.3,10.3,0000.0,0011.30,0004.16,0003.55
2023-12-31 08:32:00,SystemResetWarning,0829.6,5.00,000.00,022.9,022.0,000.0,031.2,024.3,10.3,0000.0,0011.04,0004.14,0003.55
2023-12-31 08:33:00,SystemResetWarning,0829.6,5.00,000.00,022.9,022.0,000.0,031.2,024.3,10.3,0000.0,0011.06,0004.13,0003.54
2023-12-31 08:34:00,SystemResetWarning,0829.6,5.00,000.00,022.9,022.0,000.0,031.2,024.3,10.3,0000.0,0010.61,0004.10,0003.52
2023-12-31 08:35:00,SystemResetWarning,0829.6,5.00,000.00,022.9,022.0,000.0,031.2,024.3,10.3,0000.0,0010.23,0004.04,0003.49
2023-12-31 08:36:00,SystemResetWarning,0829.6,5.00,000.00,022.9,022.0,000.0,031.2,024.3,10.3,0000.0,0009.60,0003.98,0003.46
2023-12-31 08:37:00,SystemResetWarning,0829.6,5.00,000.00,022.9,022.0,000.0,031.2,024.3,10.3,0000.0,0009.69,0003.97,0003.46
2023-12-31 08:38:00,SystemResetWarning,0829.6,5.00,000.00,022.9,022.0,000.0,031.2,024.3,10.3,0000.0,0009.65,0003.94,0003.45
2023-12-31 08:39:00,SystemResetWarning,0829.6,5.00,000.00,022.9,022.0,000.0,031.2,024.3,10.3,0000.0,0009.40,0003.94,0003.45
2023-12-31 08:40:00,SystemResetWarning,0829.6,5.00,000.00,022.9,022.0,000.0,031.2,024.3,10.3,0000.0,0009.33,0003.94,0003.45
2023-12-31 08:41:00,SystemResetWarning,0829.6,5.00,000.00,022.9,022.0,000.0,031.2,024.3,10.3,0000.0,0008.92,0003.89,0003.46
2023-12-31 08:42:00,SystemResetWarning,0829.6,5.01,000.00,022.9,022.0,000.0,031.2,024.3,10.3,0000.0,0008.60,0003.89,0003.46
2023-12-31 08:43:00,SystemResetWarning,0829.6,5.01,000.00,022.9,022.0,000.0,031.2,024.3,10.3,0000.0,0008.53,0003.90,0003.47
2023-12-31 08:44:00,SystemResetWarning,0829.6,5.00,000.00,022.9,022.0,000.0,031.2,024.3,10.3,0000.0,0008.22,0003.88,0003.48
2023-12-31 08:45:00,SystemResetWarning,0829.6,5.00,000.00,022.9,022.0,000.0,031.2,024.3,10.3,0000.0,0008.47,0003.89,0003.49
2023-12-31 08:46:00,SystemResetWarning,0829.6,5.00,000.00,022.9,022.0,000.0,031.2,024.3,10.3,0000.0,0008.76,0003.90,0003.51
2023-12-31 08:47:00,SystemResetWarning,0829.6,5.00,000.00,022.9,022.0,000.0,031.2,024.3,10.3,0000.0,0008.77,0003.92,0003.52
2023-12-31 08:48:00,SystemResetWarning,0829.6,5.00,000.00,022.9,022.0,000.0,031.2,024.2,10.3,0000.0,0008.60,0003.91,0003.52
2023-12-31 08:49:00,SystemResetWarning,0829.6,4.99,000.00,022.9,022.0,000.0,031.2,024.2,10.3,0000.0,0008.83,0003.91,0003.52
2023-12-31 08:50:00,SystemResetWarning,0829.6,4.99,000.00,022.9,022.0,000.0,031.2,024.3,10.4,0000.0,0009.08,0003.93,0003.52
2023-12-31 08:51:00,SystemResetWarning,0829.6,5.00,000.00,022.9,022.0,000.0,031.2,024.3,10.3,0000.0,0008.47,0003.96,0003.53
2023-12-31 08:52:00,SystemResetWarning,0829.6,5.00,000.00,022.9,022.0,000.0,031.2,024.3,10.4,0000.0,0008.37,0003.95,0003.54
2023-12-31 08:53:00,SystemResetWarning,0829.6,5.00,000.00,022.9,022.0,000.0,031.2,024.3,10.4,0000.0,0008.47,0003.96,0003.55
2023-12-31 08:54:00,SystemResetWarning,0829.5,5.00,000.00,022.9,022.0,000.0,031.2,024.3,10.4,0000.0,0008.97,0003.98,0003.56
2023-12-31 08:55:00,SystemResetWarning,0829.6,5.00,000.00,022.9,022.0,000.0,031.2,024.3,10.4,0000.0,0008.98,0003.99,0003.56
2023-12-31 08:56:00,SystemResetWarning,0829.5,5.00,000.00,022.9,022.0,000.0,031.2,024.3,10.3,0000.0,0009.12,0003.99,0003.56
2023-12-31 08:57:00,SystemResetWarning,0829.6,5.00,000.00,022.9,022.0,000.0,031.2,024.3,10.3,0000.0,0009.24,0004.00,0003.56
2023-12-31 08:58:00,SystemResetWarning,0829.6,5.00,000.00,022.9,022.0,000.0,031.2,024.3,10.3,0000.0,0009.21,0004.01,0003.57
2023-12-31 08:59:00,SystemResetWarning,0829.6,5.00,000.00,022.9,022.0,000.0,031.2,024.3,10.3,0000.0,0009.67,0004.04,0003.59
